Location: Berg
(47.2344°N, 9.5296°E)
Time: 14:31:56
(UTC+00:00)

Cosmos 44 - Pass Details

Date: 11 May 2021
Orbit: 571 x 791 km, 65.1° (Epoch: 11 June)

Event Time Altitude Azimuth Distance (km) Brightness Sun altitude
Rises 23:24:28 0° 310° (NW) 3,285 7.3 -24.6°
Reaches altitude 10° 23:27:40 10° 292° (WNW) 2,334 6.2 -24.6°
Enters shadow 23:30:25 17° 262° (W) 1,871 5.4 -24.6°
